Weather in Mlinov

Ukraine / Rovno District     50°30′41″N   25°37′23″E
temp.,
°C
wind,
m/s
gust,
m/s
humid.,
%
clouds,
%
prec.,
mm/h
press.,
hPa
HPBL,
m
27 february, sat
sat2723:00+6nw51095100 2.0 1021509
02:00+4wnw51187100 2.0 1023523
05:00+4wnw61186100 0.0 1022745
08:00+3wnw61180100 0.1 1022861
11:00+4nw71284100 0.0 1022877
14:00+4nw71184100 0.1 1023960
17:00+4nw8127597 0.1 10241045
20:00+4nw6127699 0.1 1025794
28 february, sun
sun2823:00+3nw61382100 0.1 1026690
02:00+2nw6128599 0.1 1028576
05:000nw6119190 0.0 1028488
08:000nw698990 0.0 1030600
11:00+1nw6880100 0.0 1030663
14:00+4nw696472 0.0 1030909
17:00+4wnw5106739 0.0 1028809
20:00+3wnw6147865 0.0 1028700
1 march, mon
mon123:00+3nw61381100 0.1 1027743
02:00+3nnw71297100 1.5 1027648
05:00+3n599499 0.4 1028546
08:00+3n478999 0.4 1031553
11:00+4nnw457682 0.0 1033734
14:00+5nw457190 0.1 1033879
17:00+5nw467498 0.0 1033797
20:00+2w489068 0.0 1034209
2 march, tue
tue223:00+2w489425 0.0 1034201
02:00+1w489462 0.0 1034201
05:00+1w5109391 0.0 1033258
08:00+1w5129185 0.0 1032303
11:00+7wnw712695 0.0 1031540
14:00+10wnw812562 0.0 1030829
17:00+9wnw612601 0.0 1029653
20:00+5wnw513770 0.0 1029343
3 march, wed
wed323:00+4wnw49860 0.0 1030200
02:00+2wnw36910 0.0 1030132
05:00+1wnw33920 0.0 103063
08:00+1w34930 0.0 1030108
11:00+6wnw35730 0.0 1030401
14:00+10wnw45580 0.0 1029758
17:00+9w24663 0.0 1027144
20:00+5wsw237919 0.0 102722